Time,TemperatureF,DewpointF,PressureIn,WindDirection,WindDirectionDegrees,WindSpeedMPH,WindSpeedGustMPH,Humidity,HourlyPrecipIn,Conditions,Clouds,dailyrainin,SoftwareType,DateUTC
2013-03-18 00:00:00,23.8,15.5,30.35,North,5,0.0,2.0,70,0.00,,---,0.00,VWS V14.01,2013-03-18 04:00:00,
2013-03-18 00:05:00,24.1,15.8,30.36,North,5,0.0,2.0,70,0.00,,---,0.00,VWS V14.01,2013-03-18 04:05:00,
2013-03-18 00:10:00,24.0,15.3,30.36,North,5,0.0,2.0,69,0.00,,---,0.00,VWS V14.01,2013-03-18 04:10:00,
2013-03-18 00:15:00,23.7,15.0,30.36,North,5,0.0,2.0,69,0.00,,---,0.00,VWS V14.01,2013-03-18 04:15:00,
2013-03-18 00:20:00,23.4,15.1,30.36,North,5,0.0,2.0,70,0.00,,---,0.00,VWS V14.01,2013-03-18 04:20:00,
2013-03-18 00:27:00,22.8,14.8,30.36,North,5,0.0,1.0,71,0.00,,---,0.00,VWS V14.01,2013-03-18 04:27:00,
2013-03-18 00:32:00,22.5,15.5,30.36,North,5,0.0,1.0,74,0.00,,---,0.00,VWS V14.01,2013-03-18 04:32:00,
2013-03-18 00:37:00,22.2,15.8,30.36,North,5,0.0,1.0,76,0.00,,---,0.00,VWS V14.01,2013-03-18 04:37:00,
2013-03-18 00:42:00,22.0,15.9,30.36,North,5,0.0,1.0,77,0.00,,---,0.00,VWS V14.01,2013-03-18 04:42:00,
2013-03-18 00:47:00,21.9,16.1,30.36,North,5,0.0,1.0,78,0.00,,---,0.00,VWS V14.01,2013-03-18 04:47:00,
2013-03-18 00:52:00,21.8,16.0,30.36,North,5,0.0,3.0,78,0.00,,---,0.00,VWS V14.01,2013-03-18 04:52:00,
2013-03-18 00:57:00,21.7,15.6,30.36,North,5,0.0,2.0,77,0.00,,---,0.00,VWS V14.01,2013-03-18 04:57:00,
2013-03-18 01:02:00,22.0,15.3,30.36,North,5,1.0,3.0,75,0.00,,---,0.00,VWS V14.01,2013-03-18 05:02:00,
2013-03-18 01:07:00,21.9,15.8,30.36,North,5,1.0,3.0,77,0.00,,---,0.00,VWS V14.01,2013-03-18 05:07:00,
2013-03-18 01:12:00,21.6,15.8,30.36,North,5,0.0,3.0,78,0.00,,---,0.00,VWS V14.01,2013-03-18 05:12:00,
2013-03-18 01:17:00,21.3,15.8,30.37,North,5,3.0,3.0,79,0.00,,---,0.00,VWS V14.01,2013-03-18 05:17:00,
2013-03-18 01:22:00,21.4,16.2,30.37,North,5,0.0,3.0,80,0.00,,---,0.00,VWS V14.01,2013-03-18 05:22:00,
2013-03-18 01:27:00,21.2,16.0,30.37,North,5,0.0,0.0,80,0.00,,---,0.00,VWS V14.01,2013-03-18 05:27:00,
2013-03-18 01:32:00,21.3,15.8,30.37,North,5,0.0,1.0,79,0.00,,---,0.00,VWS V14.01,2013-03-18 05:32:00,
2013-03-18 01:37:00,21.5,15.7,30.37,North,5,0.0,1.0,78,0.00,,---,0.00,VWS V14.01,2013-03-18 05:37:00,
2013-03-18 01:42:00,21.3,15.8,30.37,North,5,2.0,2.0,79,0.00,,---,0.00,VWS V14.01,2013-03-18 05:42:00,
2013-03-18 01:47:00,21.2,15.7,30.37,North,5,0.0,2.0,79,0.00,,---,0.00,VWS V14.01,2013-03-18 05:47:00,
2013-03-18 01:52:00,21.0,15.8,30.37,North,5,0.0,2.0,80,0.00,,---,0.00,VWS V14.01,2013-03-18 05:52:00,
2013-03-18 01:57:00,20.9,15.7,30.37,North,5,0.0,0.0,80,0.00,,---,0.00,VWS V14.01,2013-03-18 05:57:00,
2013-03-18 02:02:00,20.9,15.7,30.37,North,5,0.0,0.0,80,0.00,,---,0.00,VWS V14.01,2013-03-18 06:02:00,
2013-03-18 02:07:00,20.9,15.7,30.37,North,5,0.0,0.0,80,0.00,,---,0.00,VWS V14.01,2013-03-18 06:07:00,
2013-03-18 02:12:00,20.8,15.6,30.37,North,5,0.0,0.0,80,0.00,,---,0.00,VWS V14.01,2013-03-18 06:12:00,
2013-03-18 02:17:00,20.8,15.6,30.37,North,5,0.0,0.0,80,0.00,,---,0.00,VWS V14.01,2013-03-18 06:17:00,
2013-03-18 02:22:00,20.7,15.2,30.37,North,5,0.0,0.0,79,0.00,,---,0.00,VWS V14.01,2013-03-18 06:22:00,
2013-03-18 02:27:00,20.7,15.2,30.37,North,5,0.0,1.0,79,0.00,,---,0.00,VWS V14.01,2013-03-18 06:27:00,
2013-03-18 02:32:00,20.9,15.1,30.37,North,5,0.0,1.0,78,0.00,,---,0.00,VWS V14.01,2013-03-18 06:32:00,
2013-03-18 02:37:00,20.6,14.8,30.37,North,5,0.0,1.0,78,0.00,,---,0.00,VWS V14.01,2013-03-18 06:37:00,
2013-03-18 02:42:00,20.5,15.0,30.36,North,5,0.0,1.0,79,0.00,,---,0.00,VWS V14.01,2013-03-18 06:42:00,
2013-03-18 02:47:00,20.5,14.7,30.36,North,5,0.0,1.0,78,0.00,,---,0.00,VWS V14.01,2013-03-18 06:47:00,
2013-03-18 02:52:00,20.5,14.7,30.36,North,5,0.0,1.0,78,0.00,,---,0.00,VWS V14.01,2013-03-18 06:52:00,
2013-03-18 02:57:00,20.5,14.7,30.35,North,5,0.0,0.0,78,0.00,,---,0.00,VWS V14.01,2013-03-18 06:57:00,
2013-03-18 03:02:00,20.6,14.6,30.35,North,5,0.0,0.0,77,0.00,,---,0.00,VWS V14.01,2013-03-18 07:02:00,
2013-03-18 03:07:00,20.6,14.8,30.35,North,5,0.0,0.0,78,0.00,,---,0.00,VWS V14.01,2013-03-18 07:07:00,
2013-03-18 03:12:00,20.6,14.8,30.35,North,5,0.0,0.0,78,0.00,,---,0.00,VWS V14.01,2013-03-18 07:12:00,
2013-03-18 03:17:00,20.6,14.8,30.34,North,5,0.0,1.0,78,0.00,,---,0.00,VWS V14.01,2013-03-18 07:17:00,
2013-03-18 03:22:00,20.6,15.1,30.34,North,5,0.0,1.0,79,0.00,,---,0.00,VWS V14.01,2013-03-18 07:22:00,
2013-03-18 03:27:00,20.6,14.8,30.34,North,5,0.0,1.0,78,0.00,,---,0.00,VWS V14.01,2013-03-18 07:27:00,
2013-03-18 03:32:00,20.6,14.8,30.34,North,5,0.0,1.0,78,0.00,,---,0.00,VWS V14.01,2013-03-18 07:32:00,
2013-03-18 03:37:00,20.6,14.6,30.34,North,5,0.0,3.0,77,0.00,,---,0.00,VWS V14.01,2013-03-18 07:37:00,
2013-03-18 03:42:00,20.7,14.6,30.34,North,5,1.0,3.0,77,0.00,,---,0.00,VWS V14.01,2013-03-18 07:42:00,
2013-03-18 03:47:00,20.8,14.7,30.34,South,179,2.0,5.0,77,0.00,,---,0.00,VWS V14.01,2013-03-18 07:47:00,
2013-03-18 03:52:00,21.0,15.2,30.34,South,191,3.0,7.0,78,0.00,,---,0.00,VWS V14.01,2013-03-18 07:52:00,
2013-03-18 03:57:00,21.1,15.3,30.34,SSW,213,4.0,6.0,78,0.00,,---,0.00,VWS V14.01,2013-03-18 07:57:00,
2013-03-18 04:02:00,21.1,15.0,30.34,SSW,206,2.0,7.0,77,0.00,,---,0.00,VWS V14.01,2013-03-18 08:02:00,
2013-03-18 04:07:00,21.1,15.0,30.34,SW,219,5.0,7.0,77,0.00,,---,0.00,VWS V14.01,2013-03-18 08:07:00,
2013-03-18 04:12:00,21.2,15.1,30.34,SSW,199,4.0,7.0,77,0.00,,---,0.00,VWS V14.01,2013-03-18 08:12:00,
2013-03-18 04:17:00,21.2,15.1,30.34,SSW,198,4.0,7.0,77,0.00,,---,0.00,VWS V14.01,2013-03-18 08:17:00,
2013-03-18 04:22:00,21.2,14.8,30.34,SSW,209,5.0,8.0,76,0.00,,---,0.00,VWS V14.01,2013-03-18 08:22:00,
2013-03-18 04:27:00,21.1,14.7,30.34,SSW,208,6.0,6.0,76,0.00,,---,0.00,VWS V14.01,2013-03-18 08:27:00,
2013-03-18 04:32:00,21.0,14.3,30.34,SSW,208,5.0,6.0,75,0.00,,---,0.00,VWS V14.01,2013-03-18 08:32:00,
2013-03-18 04:37:00,21.1,14.1,30.34,SSW,208,3.0,6.0,74,0.00,,---,0.00,VWS V14.01,2013-03-18 08:37:00,
2013-03-18 04:42:00,21.1,14.1,30.34,SSW,202,6.0,8.0,74,0.00,,---,0.00,VWS V14.01,2013-03-18 08:42:00,
2013-03-18 04:47:00,21.1,14.1,30.34,SSW,199,6.0,8.0,74,0.00,,---,0.00,VWS V14.01,2013-03-18 08:47:00,
2013-03-18 04:52:00,21.1,14.1,30.34,SSW,198,4.0,9.0,74,0.00,,---,0.00,VWS V14.01,2013-03-18 08:52:00,
2013-03-18 04:57:00,21.2,14.5,30.34,SSW,196,5.0,7.0,75,0.00,,---,0.00,VWS V14.01,2013-03-18 08:57:00,
2013-03-18 05:02:00,21.2,14.5,30.34,SSW,199,4.0,9.0,75,0.00,,---,0.00,VWS V14.01,2013-03-18 09:02:00,
2013-03-18 05:07:00,21.3,14.9,30.35,SSW,200,3.0,9.0,76,0.00,,---,0.00,VWS V14.01,2013-03-18 09:07:00,
2013-03-18 05:12:00,21.4,15.0,30.35,SSW,194,2.0,9.0,76,0.00,,---,0.00,VWS V14.01,2013-03-18 09:12:00,
2013-03-18 05:17:00,21.5,15.4,30.35,SSE,159,1.0,9.0,77,0.00,,---,0.00,VWS V14.01,2013-03-18 09:17:00,
2013-03-18 05:22:00,22.1,16.9,30.35,East,100,0.0,11.0,80,0.00,,---,0.00,VWS V14.01,2013-03-18 09:22:00,
2013-03-18 05:27:00,22.1,16.9,30.36,East,80,5.0,8.0,80,0.00,,---,0.00,VWS V14.01,2013-03-18 09:27:00,
2013-03-18 05:32:00,22.0,16.2,30.36,ENE,76,1.0,9.0,78,0.00,,---,0.00,VWS V14.01,2013-03-18 09:32:00,
2013-03-18 05:37:00,22.0,15.9,30.36,South,178,9.0,9.0,77,0.00,,---,0.00,VWS V14.01,2013-03-18 09:37:00,
2013-03-18 05:42:00,21.8,16.0,30.36,SSW,193,3.0,9.0,78,0.00,,---,0.00,VWS V14.01,2013-03-18 09:42:00,
2013-03-18 05:47:00,21.6,15.8,30.36,SSW,194,4.0,9.0,78,0.00,,---,0.00,VWS V14.01,2013-03-18 09:47:00,
2013-03-18 05:52:00,21.4,15.6,30.37,SSW,213,0.0,9.0,78,0.00,,---,0.00,VWS V14.01,2013-03-18 09:52:00,
2013-03-18 05:57:00,21.5,15.7,30.36,SSE,164,0.0,5.0,78,0.00,,---,0.00,VWS V14.01,2013-03-18 09:57:00,
2013-03-18 06:03:00,21.4,15.6,30.37,South,190,0.0,6.0,78,0.00,,---,0.00,VWS V14.01,2013-03-18 10:03:00,
2013-03-18 06:08:00,21.3,15.5,30.36,South,190,1.0,6.0,78,0.00,,---,0.00,VWS V14.01,2013-03-18 10:08:00,
2013-03-18 06:12:00,21.2,15.1,30.37,SSW,195,3.0,6.0,77,0.00,,---,0.00,VWS V14.01,2013-03-18 10:12:00,
2013-03-18 06:18:00,21.1,14.7,30.37,South,189,2.0,6.0,76,0.00,,---,0.00,VWS V14.01,2013-03-18 10:18:00,
2013-03-18 06:23:00,21.0,14.3,30.37,SSW,193,3.0,6.0,75,0.00,,---,0.00,VWS V14.01,2013-03-18 10:23:00,
2013-03-18 06:28:00,20.9,13.9,30.37,SSW,197,2.0,6.0,74,0.00,,---,0.00,VWS V14.01,2013-03-18 10:28:00,
2013-03-18 06:33:00,20.9,13.9,30.37,SSW,205,3.0,7.0,74,0.00,,---,0.00,VWS V14.01,2013-03-18 10:33:00,
2013-03-18 06:38:00,20.7,13.7,30.37,SSW,206,5.0,7.0,74,0.00,,---,0.00,VWS V14.01,2013-03-18 10:38:00,
2013-03-18 06:43:00,20.6,13.6,30.36,South,181,3.0,10.0,74,0.00,,---,0.00,VWS V14.01,2013-03-18 10:43:00,
2013-03-18 06:48:00,20.7,14.4,30.36,SSW,198,1.0,10.0,76,0.00,,---,0.00,VWS V14.01,2013-03-18 10:48:00,
2013-03-18 06:53:00,20.8,14.4,30.36,SSW,211,6.0,10.0,76,0.00,,---,0.00,VWS V14.01,2013-03-18 10:53:00,
2013-03-18 06:58:00,21.0,14.6,30.36,SW,215,0.0,5.0,76,0.00,,---,0.00,VWS V14.01,2013-03-18 10:58:00,
2013-03-18 07:03:00,21.1,14.7,30.36,SSW,208,0.0,9.0,76,0.00,,---,0.00,VWS V14.01,2013-03-18 11:03:00,
2013-03-18 07:08:00,21.4,15.3,30.36,SE,139,2.0,9.0,77,0.00,,---,0.00,VWS V14.01,2013-03-18 11:08:00,
2013-03-18 07:13:00,22.0,16.2,30.36,SSE,168,6.0,11.0,78,0.00,,---,0.00,VWS V14.01,2013-03-18 11:13:00,
2013-03-18 07:18:00,22.5,16.7,30.37,ESE,121,6.0,11.0,78,0.00,,---,0.00,VWS V14.01,2013-03-18 11:18:00,
2013-03-18 07:23:00,22.6,16.8,30.36,ESE,103,1.0,11.0,78,0.00,,---,0.00,VWS V14.01,2013-03-18 11:23:00,
2013-03-18 07:28:00,22.6,16.2,30.36,SE,134,5.0,8.0,76,0.00,,---,0.00,VWS V14.01,2013-03-18 11:28:00,
2013-03-18 07:33:00,22.7,16.3,30.37,ESE,123,5.0,9.0,76,0.00,,---,0.00,VWS V14.01,2013-03-18 11:33:00,
2013-03-18 07:38:00,22.8,16.4,30.36,SE,142,7.0,9.0,76,0.00,,---,0.00,VWS V14.01,2013-03-18 11:38:00,
2013-03-18 07:43:00,22.9,15.9,30.37,ESE,104,6.0,9.0,74,0.00,,---,0.00,VWS V14.01,2013-03-18 11:43:00,
2013-03-18 07:48:00,22.8,15.5,30.36,ESE,103,2.0,9.0,73,0.00,,---,0.00,VWS V14.01,2013-03-18 11:48:00,
2013-03-18 07:53:00,23.0,16.0,30.37,East,101,5.0,9.0,74,0.00,,---,0.00,VWS V14.01,2013-03-18 11:53:00,
2013-03-18 07:58:00,22.9,15.6,30.36,SE,146,5.0,8.0,73,0.00,,---,0.00,VWS V14.01,2013-03-18 11:58:00,
2013-03-18 08:03:00,23.1,16.4,30.36,ESE,109,5.0,8.0,75,0.00,,---,0.00,VWS V14.01,2013-03-18 12:03:00,
2013-03-18 08:08:00,23.3,16.6,30.35,East,86,5.0,11.0,75,0.00,,---,0.00,VWS V14.01,2013-03-18 12:08:00,
2013-03-18 08:13:00,23.3,15.9,30.35,East,96,5.0,11.0,73,0.00,,---,0.00,VWS V14.01,2013-03-18 12:13:00,
2013-03-18 08:18:00,23.3,15.6,30.35,ESE,109,4.0,11.0,72,0.00,,---,0.00,VWS V14.01,2013-03-18 12:18:00,
2013-03-18 08:23:00,23.3,15.3,30.34,East,97,7.0,12.0,71,0.00,,---,0.00,VWS V14.01,2013-03-18 12:23:00,
2013-03-18 08:28:00,23.3,15.0,30.33,ESE,113,4.0,8.0,70,0.00,,---,0.00,VWS V14.01,2013-03-18 12:28:00,
2013-03-18 08:33:00,23.4,15.1,30.33,East,98,5.0,12.0,70,0.00,,---,0.00,VWS V14.01,2013-03-18 12:33:00,
2013-03-18 08:38:00,23.6,14.9,30.33,East,101,4.0,12.0,69,0.00,,---,0.00,VWS V14.01,2013-03-18 12:38:00,
2013-03-18 08:43:00,23.6,13.9,30.32,South,191,2.0,12.0,66,0.00,,---,0.00,VWS V14.01,2013-03-18 12:43:00,
2013-03-18 08:48:00,23.6,13.9,30.32,SSW,201,0.0,12.0,66,0.00,,---,0.00,VWS V14.01,2013-03-18 12:48:00,
2013-03-18 08:53:00,23.5,13.5,30.33,South,178,6.0,12.0,65,0.00,,---,0.00,VWS V14.01,2013-03-18 12:53:00,
2013-03-18 08:58:00,23.8,13.8,30.33,ESE,123,2.0,11.0,65,0.00,,---,0.00,VWS V14.01,2013-03-18 12:58:00,
2013-03-18 09:03:00,24.1,15.1,30.32,SSW,199,5.0,11.0,68,0.00,,---,0.00,VWS V14.01,2013-03-18 13:03:00,
2013-03-18 09:08:00,24.3,15.3,30.32,WSW,239,2.0,11.0,68,0.00,,---,0.00,VWS V14.01,2013-03-18 13:08:00,
2013-03-18 09:13:00,24.5,15.1,30.32,SSW,198,0.0,11.0,67,0.00,,---,0.00,VWS V14.01,2013-03-18 13:13:00,
2013-03-18 09:18:00,24.8,14.7,30.31,SE,146,1.0,11.0,65,0.00,,---,0.00,VWS V14.01,2013-03-18 13:18:00,
2013-03-18 09:23:00,25.2,15.4,30.31,ESE,114,4.0,11.0,66,0.00,,---,0.00,VWS V14.01,2013-03-18 13:23:00,
2013-03-18 09:28:00,25.4,14.9,30.31,SE,125,2.0,12.0,64,0.00,,---,0.00,VWS V14.01,2013-03-18 13:28:00,
2013-03-18 09:33:00,25.5,15.4,30.30,East,101,6.0,12.0,65,0.00,,---,0.00,VWS V14.01,2013-03-18 13:33:00,
2013-03-18 09:38:00,25.8,15.7,30.30,ESE,121,7.0,14.0,65,0.00,,---,0.00,VWS V14.01,2013-03-18 13:38:00,
2013-03-18 09:43:00,26.3,15.8,30.29,South,174,2.0,14.0,64,0.00,,---,0.00,VWS V14.01,2013-03-18 13:43:00,
2013-03-18 09:48:00,26.7,15.8,30.29,SSE,163,5.0,15.0,63,0.00,,---,0.00,VWS V14.01,2013-03-18 13:48:00,
2013-03-18 09:53:00,27.1,16.6,30.29,SE,138,4.0,16.0,64,0.00,,---,0.00,VWS V14.01,2013-03-18 13:53:00,
2013-03-18 09:58:00,27.2,15.6,30.29,ESE,105,8.0,15.0,61,0.00,,---,0.00,VWS V14.01,2013-03-18 13:58:00,
2013-03-18 10:03:00,27.6,17.4,30.29,SE,128,5.0,15.0,65,0.00,,---,0.00,VWS V14.01,2013-03-18 14:03:00,
2013-03-18 10:08:00,28.0,16.3,30.28,SSW,207,4.0,15.0,61,0.00,,---,0.00,VWS V14.01,2013-03-18 14:08:00,
2013-03-18 10:13:00,28.0,15.1,30.28,ESE,117,12.0,17.0,58,0.00,,---,0.00,VWS V14.01,2013-03-18 14:13:00,
2013-03-18 10:18:00,28.4,17.4,30.27,SSE,163,7.0,17.0,63,0.00,,---,0.00,VWS V14.01,2013-03-18 14:18:00,
2013-03-18 10:23:00,28.7,17.0,30.27,East,84,15.0,18.0,61,0.00,,---,0.00,VWS V14.01,2013-03-18 14:23:00,
2013-03-18 10:28:00,28.9,17.9,30.27,East,98,8.0,15.0,63,0.00,,---,0.00,VWS V14.01,2013-03-18 14:28:00,
2013-03-18 10:33:00,29.0,16.9,30.26,ESE,116,7.0,15.0,60,0.00,,---,0.00,VWS V14.01,2013-03-18 14:33:00,
2013-03-18 10:38:00,29.6,18.6,30.26,ESE,115,7.0,15.0,63,0.00,,---,0.00,VWS V14.01,2013-03-18 14:38:00,
2013-03-18 10:43:00,30.2,19.5,30.26,ESE,102,16.0,16.0,64,0.00,,---,0.00,VWS V14.01,2013-03-18 14:43:00,
2013-03-18 10:48:00,30.2,17.2,30.26,ESE,107,16.0,16.0,58,0.00,,---,0.00,VWS V14.01,2013-03-18 14:48:00,
2013-03-18 10:53:00,30.4,17.8,30.26,East,81,3.0,16.0,59,0.00,,---,0.00,VWS V14.01,2013-03-18 14:53:00,
2013-03-18 10:58:00,30.8,17.8,30.26,SE,126,12.0,15.0,58,0.00,,---,0.00,VWS V14.01,2013-03-18 14:58:00,
2013-03-18 11:03:00,30.8,16.5,30.26,SE,132,11.0,16.0,55,0.00,,---,0.00,VWS V14.01,2013-03-18 15:03:00,
2013-03-18 11:08:00,30.8,16.5,30.26,East,92,13.0,20.0,55,0.00,,---,0.00,VWS V14.01,2013-03-18 15:08:00,
2013-03-18 11:13:00,31.0,18.0,30.25,East,91,7.0,20.0,58,0.00,,---,0.00,VWS V14.01,2013-03-18 15:13:00,
2013-03-18 11:18:00,31.1,17.7,30.25,East,96,8.0,20.0,57,0.00,,---,0.00,VWS V14.01,2013-03-18 15:18:00,
2013-03-18 11:23:00,31.3,17.9,30.25,ESE,108,14.0,20.0,57,0.00,,---,0.00,VWS V14.01,2013-03-18 15:23:00,
2013-03-18 11:28:00,31.5,17.2,30.25,SE,144,5.0,14.0,55,0.00,,---,0.00,VWS V14.01,2013-03-18 15:28:00,
2013-03-18 11:33:00,31.7,18.6,30.25,SE,128,6.0,14.0,58,0.00,,---,0.00,VWS V14.01,2013-03-18 15:33:00,
2013-03-18 11:38:00,31.8,18.3,30.24,SE,127,9.0,14.0,57,0.00,,---,0.00,VWS V14.01,2013-03-18 15:38:00,
2013-03-18 11:43:00,32.0,19.7,30.24,East,101,11.0,14.0,60,0.00,,---,0.00,VWS V14.01,2013-03-18 15:43:00,
2013-03-18 11:48:00,32.2,18.3,30.24,East,98,2.0,15.0,56,0.00,,---,0.00,VWS V14.01,2013-03-18 15:48:00,
2013-03-18 11:53:00,32.4,19.7,30.24,ESE,118,11.0,15.0,59,0.00,,---,0.00,VWS V14.01,2013-03-18 15:53:00,
2013-03-18 11:58:00,32.5,18.6,30.23,ENE,73,2.0,13.0,56,0.00,,---,0.00,VWS V14.01,2013-03-18 15:58:00,
2013-03-18 12:03:00,32.7,20.0,30.23,ESE,103,11.0,15.0,59,0.00,,---,0.00,VWS V14.01,2013-03-18 16:03:00,
2013-03-18 12:08:00,32.9,20.2,30.22,East,86,8.0,15.0,59,0.00,,---,0.00,VWS V14.01,2013-03-18 16:08:00,
2013-03-18 12:13:00,33.2,19.6,30.22,East,94,8.0,15.0,57,0.00,,---,0.00,VWS V14.01,2013-03-18 16:13:00,
2013-03-18 12:18:00,33.4,20.2,30.22,East,96,9.0,15.0,58,0.00,,---,0.00,VWS V14.01,2013-03-18 16:18:00,
2013-03-18 12:23:00,33.5,19.9,30.21,ESE,109,7.0,15.0,57,0.00,,---,0.00,VWS V14.01,2013-03-18 16:23:00,
2013-03-18 12:28:00,33.7,19.7,30.21,SE,136,8.0,14.0,56,0.00,,---,0.00,VWS V14.01,2013-03-18 16:28:00,
2013-03-18 12:33:00,33.8,20.2,30.21,ESE,117,7.0,14.0,57,0.00,,---,0.00,VWS V14.01,2013-03-18 16:33:00,
2013-03-18 12:38:00,34.0,20.4,30.21,ESE,120,8.0,14.0,57,0.00,,---,0.00,VWS V14.01,2013-03-18 16:38:00,
2013-03-18 12:43:00,34.1,19.6,30.20,ESE,117,11.0,16.0,55,0.00,,---,0.00,VWS V14.01,2013-03-18 16:43:00,
2013-03-18 12:48:00,34.2,19.7,30.20,East,101,7.0,16.0,55,0.00,,---,0.00,VWS V14.01,2013-03-18 16:48:00,
2013-03-18 12:53:00,34.4,19.9,30.20,East,98,8.0,16.0,55,0.00,,---,0.00,VWS V14.01,2013-03-18 16:53:00,
2013-03-18 12:58:00,34.6,20.5,30.19,East,92,8.0,11.0,56,0.00,,---,0.00,VWS V14.01,2013-03-18 16:58:00,
2013-03-18 13:03:00,34.8,19.9,30.19,East,96,8.0,13.0,54,0.00,,---,0.00,VWS V14.01,2013-03-18 17:03:00,
2013-03-18 13:08:00,35.0,19.6,30.19,ESE,102,7.0,13.0,53,0.00,,---,0.00,VWS V14.01,2013-03-18 17:08:00,
2013-03-18 13:13:00,35.2,20.7,30.18,East,101,9.0,14.0,55,0.00,,---,0.00,VWS V14.01,2013-03-18 17:13:00,
2013-03-18 13:18:00,35.2,19.8,30.18,ESE,105,11.0,14.0,53,0.00,,---,0.00,VWS V14.01,2013-03-18 17:18:00,
2013-03-18 13:23:00,35.3,20.8,30.17,ESE,121,9.0,14.0,55,0.00,,---,0.00,VWS V14.01,2013-03-18 17:23:00,
2013-03-18 13:28:00,35.4,20.9,30.17,SE,140,6.0,14.0,55,0.00,,---,0.00,VWS V14.01,2013-03-18 17:28:00,
2013-03-18 13:33:00,35.6,21.0,30.16,East,100,11.0,15.0,55,0.00,,---,0.00,VWS V14.01,2013-03-18 17:33:00,
2013-03-18 13:38:00,35.5,19.6,30.16,East,96,13.0,16.0,52,0.00,,---,0.00,VWS V14.01,2013-03-18 17:38:00,
2013-03-18 13:43:00,35.5,20.5,30.16,ESE,109,9.0,20.0,54,0.00,,---,0.00,VWS V14.01,2013-03-18 17:43:00,
2013-03-18 13:48:00,35.5,19.6,30.15,ESE,104,14.0,20.0,52,0.00,,---,0.00,VWS V14.01,2013-03-18 17:48:00,
2013-03-18 13:53:00,35.6,20.2,30.15,ESE,113,7.0,20.0,53,0.00,,---,0.00,VWS V14.01,2013-03-18 17:53:00,
2013-03-18 13:58:00,35.5,20.5,30.15,SE,145,8.0,18.0,54,0.00,,---,0.00,VWS V14.01,2013-03-18 17:58:00,
2013-03-18 14:03:00,35.4,19.1,30.15,ESE,119,9.0,18.0,51,0.00,,---,0.00,VWS V14.01,2013-03-18 18:03:00,
2013-03-18 14:08:00,35.3,19.5,30.15,ESE,123,12.0,18.0,52,0.00,,---,0.00,VWS V14.01,2013-03-18 18:08:00,
2013-03-18 14:13:00,35.4,20.0,30.15,East,92,14.0,18.0,53,0.00,,---,0.00,VWS V14.01,2013-03-18 18:13:00,
2013-03-18 14:18:00,35.5,19.6,30.14,ESE,123,9.0,18.0,52,0.00,,---,0.00,VWS V14.01,2013-03-18 18:18:00,
2013-03-18 14:23:00,35.5,19.6,30.14,ESE,109,12.0,18.0,52,0.00,,---,0.00,VWS V14.01,2013-03-18 18:23:00,
2013-03-18 14:28:00,35.5,19.6,30.14,ESE,123,6.0,18.0,52,0.00,,---,0.00,VWS V14.01,2013-03-18 18:28:00,
2013-03-18 14:33:00,35.5,18.2,30.14,SE,140,12.0,18.0,49,0.00,,---,0.00,VWS V14.01,2013-03-18 18:33:00,
2013-03-18 14:38:00,35.4,18.6,30.14,SE,140,11.0,18.0,50,0.00,,---,0.00,VWS V14.01,2013-03-18 18:38:00,
2013-03-18 14:43:00,35.4,19.1,30.14,SE,134,8.0,18.0,51,0.00,,---,0.00,VWS V14.01,2013-03-18 18:43:00,
2013-03-18 14:48:00,35.4,18.6,30.14,East,98,9.0,18.0,50,0.00,,---,0.00,VWS V14.01,2013-03-18 18:48:00,
2013-03-18 14:53:00,35.3,18.1,30.14,SSW,205,7.0,19.0,49,0.00,,---,0.00,VWS V14.01,2013-03-18 18:53:00,
2013-03-18 14:58:00,34.6,18.8,30.14,SSW,207,11.0,18.0,52,0.00,,---,0.00,VWS V14.01,2013-03-18 18:58:00,
2013-03-18 15:03:00,33.9,19.0,30.14,SSW,208,5.0,18.0,54,0.00,,---,0.00,VWS V14.01,2013-03-18 19:03:00,
2013-03-18 15:08:00,33.0,22.2,30.14,SW,215,8.0,18.0,64,0.00,,---,0.00,VWS V14.01,2013-03-18 19:08:00,
2013-03-18 15:13:00,31.4,23.4,30.14,SE,141,4.0,18.0,72,0.00,,---,0.00,VWS V14.01,2013-03-18 19:13:00,
2013-03-18 15:18:00,30.8,24.5,30.14,SSE,159,4.0,18.0,77,0.00,,---,0.00,VWS V14.01,2013-03-18 19:18:00,
2013-03-18 15:23:00,30.3,25.2,30.14,East,90,6.0,18.0,81,0.00,,---,0.00,VWS V14.01,2013-03-18 19:23:00,
2013-03-18 15:28:00,30.1,26.4,30.13,SE,132,12.0,14.0,86,0.00,,---,0.00,VWS V14.01,2013-03-18 19:28:00,
2013-03-18 15:33:00,30.0,26.9,30.13,ESE,117,8.0,19.0,88,0.00,,---,0.00,VWS V14.01,2013-03-18 19:33:00,
2013-03-18 15:38:00,29.8,26.7,30.12,SSW,200,10.0,19.0,88,0.00,,---,0.00,VWS V14.01,2013-03-18 19:38:00,
2013-03-18 15:43:00,29.7,26.9,30.12,SE,126,9.0,19.0,89,0.00,,---,0.00,VWS V14.01,2013-03-18 19:43:00,
2013-03-18 15:48:00,29.5,26.9,30.12,SSW,194,4.0,19.0,90,0.00,,---,0.00,VWS V14.01,2013-03-18 19:48:00,
2013-03-18 15:53:00,29.4,26.8,30.12,ESE,106,7.0,19.0,90,0.00,,---,0.00,VWS V14.01,2013-03-18 19:53:00,
2013-03-18 15:58:00,29.4,27.1,30.11,East,95,6.0,11.0,91,0.00,,---,0.00,VWS V14.01,2013-03-18 19:58:00,
2013-03-18 16:03:00,29.3,27.0,30.11,East,88,11.0,13.0,91,0.00,,---,0.00,VWS V14.01,2013-03-18 20:03:00,
2013-03-18 16:08:00,29.3,27.0,30.11,ESE,106,11.0,18.0,91,0.00,,---,0.00,VWS V14.01,2013-03-18 20:08:00,
2013-03-18 16:13:00,29.3,27.3,30.11,ESE,105,5.0,18.0,92,0.00,,---,0.00,VWS V14.01,2013-03-18 20:13:00,
2013-03-18 16:18:00,29.3,27.3,30.11,ESE,103,7.0,18.0,92,0.00,,---,0.00,VWS V14.01,2013-03-18 20:18:00,
2013-03-18 16:23:00,29.3,27.3,30.10,East,96,11.0,18.0,92,0.00,,---,0.00,VWS V14.01,2013-03-18 20:23:00,
2013-03-18 16:28:00,29.4,27.4,30.10,East,101,6.0,13.0,92,0.00,,---,0.00,VWS V14.01,2013-03-18 20:28:00,
2013-03-18 16:33:00,29.2,27.2,30.10,ESE,112,6.0,13.0,92,0.00,,---,0.00,VWS V14.01,2013-03-18 20:33:00,
2013-03-18 16:38:00,29.2,27.4,30.09,East,94,7.0,15.0,93,0.00,,---,0.00,VWS V14.01,2013-03-18 20:38:00,
2013-03-18 16:43:00,29.1,27.3,30.09,East,90,9.0,15.0,93,0.00,,---,0.00,VWS V14.01,2013-03-18 20:43:00,
2013-03-18 16:48:00,29.0,27.2,30.09,ESE,110,5.0,15.0,93,0.00,,---,0.00,VWS V14.01,2013-03-18 20:48:00,
2013-03-18 16:53:00,29.1,27.3,30.09,ESE,121,11.0,15.0,93,0.00,,---,0.00,VWS V14.01,2013-03-18 20:53:00,
2013-03-18 16:58:00,29.1,27.3,30.08,SE,131,6.0,11.0,93,0.00,,---,0.00,VWS V14.01,2013-03-18 20:58:00,
2013-03-18 17:03:00,29.2,27.4,30.08,ESE,102,11.0,16.0,93,0.00,,---,0.00,VWS V14.01,2013-03-18 21:03:00,
2013-03-18 17:08:00,29.4,27.6,30.07,SE,125,12.0,16.0,93,0.00,,---,0.00,VWS V14.01,2013-03-18 21:08:00,
2013-03-18 17:13:00,29.6,27.8,30.07,East,101,11.0,16.0,93,0.00,,---,0.00,VWS V14.01,2013-03-18 21:13:00,
2013-03-18 17:18:00,29.8,28.0,30.07,East,83,5.0,16.0,93,0.00,,---,0.00,VWS V14.01,2013-03-18 21:18:00,
2013-03-18 17:23:00,29.6,27.8,30.07,ESE,111,12.0,16.0,93,0.00,,---,0.00,VWS V14.01,2013-03-18 21:23:00,
2013-03-18 17:28:00,29.5,27.7,30.06,ESE,123,13.0,13.0,93,0.00,,---,0.00,VWS V14.01,2013-03-18 21:28:00,
2013-03-18 17:33:00,29.5,27.7,30.06,South,170,9.0,13.0,93,0.00,,---,0.00,VWS V14.01,2013-03-18 21:33:00,
2013-03-18 17:38:00,29.7,28.2,30.06,SE,128,11.0,17.0,94,0.00,,---,0.00,VWS V14.01,2013-03-18 21:38:00,
2013-03-18 17:43:00,29.6,27.8,30.05,ESE,117,2.0,17.0,93,0.00,,---,0.00,VWS V14.01,2013-03-18 21:43:00,
2013-03-18 17:48:00,29.7,28.2,30.05,SSW,199,4.0,17.0,94,0.00,,---,0.00,VWS V14.01,2013-03-18 21:48:00,
2013-03-18 17:53:00,29.6,27.8,30.05,East,87,7.0,17.0,93,0.00,,---,0.00,VWS V14.01,2013-03-18 21:53:00,
2013-03-18 17:58:00,29.5,27.7,30.04,ESE,111,8.0,12.0,93,0.00,,---,0.00,VWS V14.01,2013-03-18 21:58:00,
2013-03-18 18:03:00,29.5,27.7,30.03,ESE,114,7.0,15.0,93,0.00,,---,0.00,VWS V14.01,2013-03-18 22:03:00,
2013-03-18 18:08:00,29.4,27.6,30.03,ESE,105,6.0,16.0,93,0.00,,---,0.00,VWS V14.01,2013-03-18 22:08:00,
2013-03-18 18:13:00,29.5,27.7,30.03,ESE,120,7.0,16.0,93,0.00,,---,0.00,VWS V14.01,2013-03-18 22:13:00,
2013-03-18 18:18:00,29.7,27.9,30.02,ESE,102,9.0,16.0,93,0.00,,---,0.00,VWS V14.01,2013-03-18 22:18:00,
2013-03-18 18:23:00,29.9,28.1,30.02,ENE,74,3.0,16.0,93,0.00,,---,0.00,VWS V14.01,2013-03-18 22:23:00,
2013-03-18 18:28:00,29.8,28.0,30.02,East,96,5.0,13.0,93,0.00,,---,0.00,VWS V14.01,2013-03-18 22:28:00,
2013-03-18 18:33:00,29.6,27.8,30.01,East,98,7.0,13.0,93,0.00,,---,0.00,VWS V14.01,2013-03-18 22:33:00,
2013-03-18 18:38:00,29.7,27.9,30.01,East,83,10.0,15.0,93,0.00,,---,0.00,VWS V14.01,2013-03-18 22:38:00,
2013-03-18 18:43:00,29.6,27.8,30.01,SSE,161,2.0,16.0,93,0.00,,---,0.00,VWS V14.01,2013-03-18 22:43:00,
2013-03-18 18:48:00,29.8,28.0,30.00,SE,127,6.0,16.0,93,0.00,,---,0.00,VWS V14.01,2013-03-18 22:48:00,
2013-03-18 18:53:00,30.0,28.2,30.00,SE,126,8.0,16.0,93,0.00,,---,0.00,VWS V14.01,2013-03-18 22:53:00,
2013-03-18 18:58:00,30.1,28.3,30.00,East,88,11.0,16.0,93,0.00,,---,0.00,VWS V14.01,2013-03-18 22:58:00,
2013-03-18 19:03:00,30.1,28.3,29.99,SE,134,7.0,16.0,93,0.00,,---,0.00,VWS V14.01,2013-03-18 23:03:00,
2013-03-18 19:08:00,30.1,28.1,29.99,ESE,123,9.0,16.0,92,0.00,,---,0.00,VWS V14.01,2013-03-18 23:08:00,
2013-03-18 19:13:00,30.3,28.5,29.98,East,93,12.0,16.0,93,0.00,,---,0.00,VWS V14.01,2013-03-18 23:13:00,
2013-03-18 19:18:00,30.5,28.7,29.98,East,81,4.0,16.0,93,0.00,,---,0.00,VWS V14.01,2013-03-18 23:18:00,
2013-03-18 19:23:00,30.6,28.8,29.98,North,360,2.0,16.0,93,0.00,,---,0.00,VWS V14.01,2013-03-18 23:23:00,
2013-03-18 19:28:00,30.3,28.3,29.98,East,81,4.0,15.0,92,0.00,,---,0.00,VWS V14.01,2013-03-18 23:28:00,
2013-03-18 19:33:00,30.1,28.1,29.98,South,174,8.0,15.0,92,0.00,,---,0.00,VWS V14.01,2013-03-18 23:33:00,
2013-03-18 19:38:00,30.0,28.0,29.98,East,91,8.0,16.0,92,0.00,,---,0.00,VWS V14.01,2013-03-18 23:38:00,
2013-03-18 19:43:00,30.1,28.1,29.98,SSE,168,10.0,16.0,92,0.00,,---,0.00,VWS V14.01,2013-03-18 23:43:00,
2013-03-18 19:48:00,30.2,28.2,29.97,ENE,74,15.0,21.0,92,0.00,,---,0.00,VWS V14.01,2013-03-18 23:48:00,
2013-03-18 19:53:00,30.3,28.3,29.97,SSE,155,6.0,21.0,92,0.00,,---,0.00,VWS V14.01,2013-03-18 23:53:00,
2013-03-18 19:58:00,30.5,28.2,29.97,East,88,4.0,15.0,91,0.00,,---,0.00,VWS V14.01,2013-03-18 23:58:00,
2013-03-18 20:03:00,30.4,28.1,29.97,SE,135,7.0,16.0,91,0.00,,---,0.00,VWS V14.01,2013-03-19 00:03:00,
2013-03-18 20:08:00,30.4,28.1,29.97,SW,220,3.0,16.0,91,0.00,,---,0.00,VWS V14.01,2013-03-19 00:08:00,
2013-03-18 20:13:00,30.4,28.1,29.97,NE,40,4.0,16.0,91,0.00,,---,0.00,VWS V14.01,2013-03-19 00:13:00,
2013-03-18 20:18:00,30.3,28.0,29.96,East,92,4.0,16.0,91,0.00,,---,0.00,VWS V14.01,2013-03-19 00:18:00,
2013-03-18 20:23:00,30.5,28.2,29.95,SE,135,8.0,19.0,91,0.00,,---,0.00,VWS V14.01,2013-03-19 00:23:00,
2013-03-18 20:28:00,30.6,28.6,29.95,SSE,159,9.0,18.0,92,0.00,,---,0.00,VWS V14.01,2013-03-19 00:28:00,
2013-03-18 20:33:00,30.7,28.7,29.95,ESE,107,13.0,18.0,92,0.00,,---,0.00,VWS V14.01,2013-03-19 00:33:00,
2013-03-18 20:38:00,30.8,28.8,29.95,SSE,164,8.0,20.0,92,0.00,,---,0.00,VWS V14.01,2013-03-19 00:38:00,
2013-03-18 20:43:00,30.8,28.8,29.94,SW,236,6.0,21.0,92,0.00,,---,0.00,VWS V14.01,2013-03-19 00:43:00,
2013-03-18 20:48:00,30.9,28.9,29.94,ESE,112,7.0,23.0,92,0.00,,---,0.00,VWS V14.01,2013-03-19 00:48:00,
2013-03-18 20:53:00,31.1,29.0,29.94,ESE,115,7.0,23.0,92,0.00,,---,0.00,VWS V14.01,2013-03-19 00:53:00,
2013-03-18 20:58:00,31.0,29.0,29.94,SSE,168,11.0,16.0,92,0.00,,---,0.00,VWS V14.01,2013-03-19 00:58:00,
2013-03-18 21:03:00,31.2,29.1,29.94,ESE,103,8.0,18.0,92,0.00,,---,0.00,VWS V14.01,2013-03-19 01:03:00,
2013-03-18 21:08:00,31.0,29.0,29.93,SSE,155,8.0,18.0,92,0.00,,---,0.00,VWS V14.01,2013-03-19 01:08:00,
2013-03-18 21:13:00,30.9,28.9,29.93,East,90,9.0,20.0,92,0.00,,---,0.00,VWS V14.01,2013-03-19 01:13:00,
2013-03-18 21:18:00,30.8,28.8,29.92,SSE,158,7.0,20.0,92,0.00,,---,0.00,VWS V14.01,2013-03-19 01:18:00,
2013-03-18 21:23:00,31.0,29.0,29.92,South,174,10.0,24.0,92,0.00,,---,0.00,VWS V14.01,2013-03-19 01:23:00,
2013-03-18 21:28:00,31.1,29.3,29.92,ESE,115,8.0,22.0,93,0.00,,---,0.00,VWS V14.01,2013-03-19 01:28:00,
2013-03-18 21:33:00,31.1,29.0,29.91,ESE,103,7.0,22.0,92,0.00,,---,0.00,VWS V14.01,2013-03-19 01:33:00,
2013-03-18 21:38:00,31.3,29.2,29.91,SE,146,14.0,22.0,92,0.00,,---,0.00,VWS V14.01,2013-03-19 01:38:00,
2013-03-18 21:43:00,31.4,29.4,29.91,South,174,5.0,22.0,92,0.00,,---,0.00,VWS V14.01,2013-03-19 01:43:00,
2013-03-18 21:48:00,31.3,29.0,29.91,East,92,11.0,22.0,91,0.00,,---,0.00,VWS V14.01,2013-03-19 01:48:00,
2013-03-18 21:53:00,31.4,29.1,29.91,ESE,113,6.0,22.0,91,0.00,,---,0.00,VWS V14.01,2013-03-19 01:53:00,
2013-03-18 21:58:00,31.4,29.1,29.90,ESE,113,16.0,23.0,91,0.00,,---,0.00,VWS V14.01,2013-03-19 01:58:00,
2013-03-18 22:03:00,31.6,29.3,29.90,East,94,5.0,23.0,91,0.00,,---,0.00,VWS V14.01,2013-03-19 02:03:00,
2013-03-18 22:08:00,31.6,29.0,29.90,East,101,8.0,23.0,90,0.00,,---,0.00,VWS V14.01,2013-03-19 02:08:00,
2013-03-18 22:13:00,31.7,28.8,29.90,East,99,7.0,23.0,89,0.00,,---,0.00,VWS V14.01,2013-03-19 02:13:00,
2013-03-18 22:18:00,31.6,28.7,29.90,SE,130,7.0,23.0,89,0.00,,---,0.00,VWS V14.01,2013-03-19 02:18:00,
2013-03-18 22:23:00,31.7,28.6,29.90,West,269,8.0,23.0,88,0.00,,---,0.00,VWS V14.01,2013-03-19 02:23:00,
2013-03-18 22:28:00,31.7,28.6,29.89,SE,146,4.0,14.0,88,0.00,,---,0.00,VWS V14.01,2013-03-19 02:28:00,
2013-03-18 22:33:00,31.8,28.7,29.88,SE,146,11.0,20.0,88,0.00,,---,0.00,VWS V14.01,2013-03-19 02:33:00,
2013-03-18 22:38:00,31.9,28.8,29.88,East,83,8.0,20.0,88,0.00,,---,0.00,VWS V14.01,2013-03-19 02:38:00,
2013-03-18 22:43:00,31.8,28.4,29.87,ESE,119,5.0,22.0,87,0.00,,---,0.00,VWS V14.01,2013-03-19 02:43:00,
2013-03-18 22:48:00,31.9,28.8,29.87,SSE,154,15.0,22.0,88,0.00,,---,0.00,VWS V14.01,2013-03-19 02:48:00,
2013-03-18 22:53:00,31.8,28.4,29.86,SE,126,12.0,22.0,87,0.00,,---,0.00,VWS V14.01,2013-03-19 02:53:00,
2013-03-18 22:58:00,31.8,28.4,29.86,ESE,123,12.0,23.0,87,0.00,,---,0.00,VWS V14.01,2013-03-19 02:58:00,
2013-03-18 23:03:00,31.8,28.4,29.85,SSE,167,11.0,23.0,87,0.00,,---,0.00,VWS V14.01,2013-03-19 03:03:00,
2013-03-18 23:09:00,31.8,28.4,29.86,ESE,122,11.0,23.0,87,0.00,,---,0.00,VWS V14.01,2013-03-19 03:09:00,
2013-03-18 23:14:00,31.9,28.5,29.85,ESE,104,11.0,23.0,87,0.00,,---,0.00,VWS V14.01,2013-03-19 03:14:00,
2013-03-18 23:19:00,31.9,28.8,29.85,NW,325,5.0,23.0,88,0.00,,---,0.00,VWS V14.01,2013-03-19 03:19:00,
2013-03-18 23:24:00,31.8,28.7,29.85,SE,124,14.0,23.0,88,0.00,,---,0.00,VWS V14.01,2013-03-19 03:24:00,
2013-03-18 23:29:00,31.7,28.6,29.84,WSW,239,5.0,18.0,88,0.00,,---,0.00,VWS V14.01,2013-03-19 03:29:00,
2013-03-18 23:34:00,31.7,28.6,29.85,ESE,120,9.0,24.0,88,0.00,,---,0.00,VWS V14.01,2013-03-19 03:34:00,
2013-03-18 23:39:00,31.7,28.3,29.85,SE,139,9.0,24.0,87,0.00,,---,0.00,VWS V14.01,2013-03-19 03:39:00,
2013-03-18 23:44:00,31.9,28.5,29.84,SW,216,6.0,24.0,87,0.00,,---,0.00,VWS V14.01,2013-03-19 03:44:00,
2013-03-18 23:49:00,31.9,28.5,29.84,SW,221,9.0,24.0,87,0.00,,---,0.00,VWS V14.01,2013-03-19 03:49:00,
2013-03-18 23:54:00,32.0,28.0,29.84,South,189,6.0,24.0,85,0.00,,---,0.00,VWS V14.01,2013-03-19 03:54:00,
2013-03-18 23:59:00,32.1,28.1,29.84,SE,146,7.0,15.0,85,0.00,,---,0.00,VWS V14.01,2013-03-19 03:59:00,